Погода в Речице

Россия / Орловская область     52°23′19″N   37°23′21″E
темп.,
°C
ветер,
м/с
пор.,
м/с
влажн.,
%
обл.,
%
осадки,
мм/ч
давл.,
гПа
погр.,
м
20 апреля, вт
вт2000:00+7всв488972 0.8 1017263
03:00+7в61091100 0.9 1016462
06:00+7в61290100 0.0 1015617
09:00+7в71289100 0.0 1014617
12:00+7в61090100 0.0 1014688
15:00+7в7984100 0.1 1012716
18:00+6всв71190100 0.0 1010697
21:00+5всв61192100 0.2 1006551
21 апреля, ср
ср2100:00+4св5994100 1.5 1004543
03:00+3с4598100 2.7 1003330
06:00+2сз3699100 1.1 1004339
09:00+3з4797100 1.1 1007433
12:00+6зюз5784100 0.1 1009708
15:00+8зюз5772100 0.1 10101095
18:00+7юз4787100 0.1 1012543
21:00+6ююз368875 0.2 1014282
22 апреля, чт
чт2200:00+4юз3794100 0.1 1015205
03:00+5зюз369375 0.1 1016267
06:00+3юз349520 0.0 1018113
09:00+8ююз357683 0.0 1018427
12:00+12ююз586215 0.0 10181139
15:00+13ююз686379 0.4 10181285
18:00+12ююз597231 0.7 1018732
21:00+9ю5128899 1.7 1019341
23 апреля, пт
пт2300:00+8ю4118827 0.1 1019219
03:00+7ю4118837 0.1 1019224
06:00+7ю4128563 0.0 1019242
09:00+13ю6116593 0.0 1019509
12:00+16ю794381 0.0 10182498
15:00+15ю7105554 0.3 10161360
18:00+14ю6105969 1.0 1015522
21:00+11ююв5127618 1.0 1015293
24 апреля, сб
сб2400:00+10ююв5128022 0.1 1013280
03:00+8ю41189100 0.4 1012341
06:00+7сз2390100 0.1 1011190
09:00+3сз71196100 1.4 1012464
12:00+4зсз5992100 7.0 1012679
15:00+10з8104997 7.4 10112519
18:00+7з7105927 0.4 10121183
21:00+4з5117443 0.4 1014356